Regional Weather Roundup
Issued by NWS

Home | Current Version | Previous Version | Graphics & Text | Print | Product List | Glossary On
Versions: 1 2 3 4 5 6 7 8 9 10 11 12 13 14 15 16 17 18 19 20 21 22 23 24 25 26 27 28 29 30 31 32 33 34 35 36 37 38 39 40 41 42 43 44 45 46 47 48 49 50
294
ASUS45 KBOU 121307
RWRCO

WEATHER ROUNDUP FOR COLORADO
NATIONAL WEATHER SERVICE DENVER/BOULDER CO
600 AM MST FRI FEB 12 2016

NOTE: "FAIR" INDICATES FEW OR NO CLOUDS BELOW 12000 FEET WITH NO
SIGNIFICANT WEATHER AND/OR OBSTRUCTIONS TO VISIBILITY.

COZ001>005-013-030-031-121400-
...NORTHWEST COLORADO...

CITY           SKY/WX    TMP DP  RH WIND       PRES   REMARKS
CRAIG          CLOUDY     3  -1  83 CALM      30.42S
HAYDEN         CLOUDY    23  12  63 E14       30.41S WCI  11
MEEKER         CLOUDY    15   9  76 CALM      30.42R
MOUNT WERNER   NOT AVBL
STEAMBOAT SPGS CLOUDY    15  11  86 CALM      30.42S
WALDEN         CLOUDY    28  18  64 SE8       30.40S WCI  20
$$

COZ006>008-011-121400-
...WEST CENTRAL VALLEYS...

CITY           SKY/WX    TMP DP  RH WIND       PRES   REMARKS
GRAND JUNCTION CLOUDY    25  22  88 E6        30.42S WCI  18
MONTROSE       CLOUDY    23  16  74 S7        30.45S WCI  15
EAGLE          CLOUDY    14  12  92 CALM      30.50R
RIFLE          CLOUDY    17  11  77 CALM      30.46R
DELTA          CLOUDY    26  23  87 W3        30.45R
NUCLA          CLOUDY    27  19  74 SE7       30.46S WCI  19
$$

COZ017>023-064>068-121400-
...SOUTHWEST COLORADO...

CITY           SKY/WX    TMP DP  RH WIND       PRES   REMARKS
DURANGO        CLOUDY    16  13  88 E5        30.42S WCI   9
CORTEZ         CLOUDY    19  15  84 CALM      30.42R
PAGOSA SPRINGS CLOUDY    19  15  84 CALM      30.44S
TELLURIDE      CLOUDY    30  12  47 SE6       30.50R WCI  24
WOLF CREEK PAS CLOUDY    30   5  34 SW7       30.58S WCI  23
$$

COZ009-010-012-014-032>034-037-058>063-121400-
...CENTRAL COLORADO...

CITY           SKY/WX    TMP DP  RH WIND       PRES   REMARKS
ASPEN          CLOUDY    20  12  71 S7        30.43R WCI  11
BUENA VISTA    CLOUDY    25  18  76 W3        30.42S
COPPER MTN     CLOUDY    30  14  51 W22       30.49F WCI  17
BERTHOUD PASS  FAIR      21  10  63 NW39G46   30.43R WCI   1
COTTONWOOD PAS CLOUDY    37  14  38 CALM      30.44S
GUNNISON       CLOUDY    -9 -29  37 CALM      30.57R
KREMMLING      CLOUDY     0  -4  85 CALM      30.49S
LEADVILLE      CLOUDY    23  14  68 NE8       30.44S WCI  14
MONARCH PASS   CLOUDY    25   9  50 W29       30.59S WCI   8
SALIDA         NOT AVBL
SUNLIGHT       CLOUDY    32  12  43 CALM        N/A
WILKERSON PASS CLOUDY    30  16  55 W6        30.49S WCI  24
$$

COZ069>075-121400-
...SAN LUIS VALLEY/SANGRE DE CRISTO MOUNTAINS...

CITY           SKY/WX    TMP DP  RH WIND       PRES   REMARKS
ALAMOSA        CLOUDY    19  15  84 CALM      30.44R
LA VETA PASS   CLOUDY    32  10  40 MISG      30.43F
SAGUACHE       CLOUDY    27  14  59 NW15      30.44S WCI  15
$$

COZ035-036-038>040-121400-
...NORTHERN COLORADO FRONT RANGE...

CITY           SKY/WX    TMP DP  RH WIND       PRES   REMARKS
DENVER INTL AP CLOUDY    33  24  69 SW8       30.26R WCI  26
DMNS CITY PARK   N/A     34  25  69 NE2G8     30.27R
AURORA         PTCLDY    34  24  68 SW2       30.27R
FRONT RANGE AP NOT AVBL
ERIE MUNI ARPT CLOUDY    29  27  91 CALM      30.27S
BOULDER MUN AP CLOUDY    32  27  80 NW5       30.27R WCI  27
CENTENNIAL     CLOUDY    38  24  57 SE3       30.26S
BROOMFIELD     PTCLDY    36  25  64 N6        30.27R
FORT COLLINS   CLOUDY    30  25  80 N8        30.29S WCI  23
LONGMONT       CLOUDY    31  27  83 CALM      30.29S
$$

COZ041-046-047-076>085-087-088-121400-
...PIKES PEAK/PALMER DIVIDE AND SOUTHERN FOOTHILLS...

CITY           SKY/WX    TMP DP  RH WIND       PRES   REMARKS
COLO. SPRINGS  CLOUDY    29  21  72 N8        30.33R WCI  21
A. F. ACADEMY  CLOUDY    27  21  79 N7        30.32R WCI  20
SCHRIEVER AFB  FAIR      32  22  67 SW7       30.32S WCI  25
ELLICOTT       CLOUDY   N/A N/A N/A CALM      30.31S
FALCON         CLOUDY    31  20  65 W6        30.33S WCI  25
FORT CARSON    CLOUDY    31  24  73 N12       30.30R WCI  22
LIMON          CLOUDY    19  16  88 CALM      30.29F
MONUMENT HILL  CLOUDY    34  21  60 SW13      30.32S WCI  25
TRINIDAD       CLOUDY    36  21  54 SW15      30.32S
$$

COZ042>045-048>051-090-091-121400-
...NORTHEAST COLORADO...

CITY           SKY/WX    TMP DP  RH WIND       PRES   REMARKS
GREELEY ARPT     N/A     28  25  86 CALM      30.29R
AKRON          CLOUDY    35  26  69 SW9       30.28S WCI  28
BURLINGTON     CLOUDY    31  25  78 W8        30.30S WCI  23
WRAY           NOT AVBL
STERLING       CLOUDY    28  27  93 S3        30.29R
HOLYOKE        CLOUDY    34  30  86 W8        30.29R WCI  27
FORT MORGAN    CLOUDY    29  25  85 N5        30.29S WCI  23
$$

COZ086-089-092>099-121400-
...SOUTHEAST COLORADO...

CITY           SKY/WX    TMP DP  RH WIND       PRES   REMARKS
PUEBLO         CLOUDY    29  23  78 CALM      30.31R
LA JUNTA       CLOUDY    32  25  75 SW8       30.31R WCI  25
LAMAR          CLOUDY    24  22  91 SW3       30.31R
SPRINGFIELD      N/A     26  21  81 W3        30.31S
$$




USA.gov is the U.S. government's official web portal to all federal, state and local government web resources and services.